Weather History for Lander, WY

Change the Weather History Date:

Saturday, March 30, 2013

  Actual Average Record
Temperature  
Mean Temperature 43 °F 40 °F  
Max Temperature 55 °F 52 °F 76 °F (1966)
Min Temperature 31 °F 28 °F 2 °F (1936)
Degree Days  
Heating Degree Days 22 25  
Month to date heating degree days 872 890  
Since 1 July heating degree days 6241 6594  
Cooling Degree Days 0 0  
Month to date cooling degree days 0 0  
Year to date cooling degree days 0 0  
Moisture  
Dew Point 30 °F    
Average Humidity 56    
Maximum Humidity 79    
Minimum Humidity 32    
Precipitation  
Precipitation 0.00 in 0.05 in 0.80 in (1897)
Month to date precipitation 0.42 1.11  
Year to date precipitation 2.40 2.10  
Snow  
Snow 0.00 in 0.60 in - ()
Month to date snowfall 5.1 15.5  
Since 1 July snowfall 57.3 69.1  
Snow Depth 0.00 in    
Sea Level Pressure  
Sea Level Pressure 30.13 in    
Wind  
Wind Speed 5 mph (NNW)    
Max Wind Speed 12 mph    
Max Gust Speed 14 mph    
Visibility 10 miles    
Events      
T = Trace of Precipitation, MM = Missing Value Source: NWS Daily Summary

Daily Weather History Graph

Daily Weather History Graph

Search for Another Location

Airport:

Trip Planner

Search our weather history database for the weather conditions in past years. The results will help you decide how hot, cold, wet, or windy it might be!

Date:

Astronomy

Mar. 30, 2013 Rise Set
Actual Time 7:00 AM MDT 7:39 PM MDT
Civil Twilight 6:31 AM MDT 8:07 PM MDT
Nautical Twilight 5:57 AM MDT 8:41 PM MDT
Astronomical Twilight 5:23 AM MDT 9:16 PM MDT
Moon 11:55 PM MDT (3/30) 8:52 AM MDT (3/30)
Length of Visible Light 13h 36m
Length of Day
12h 39m
Waning Gibbous, 86% of the Moon is Illuminated
Mar 30
Waning Gibbous
Apr 2
Last Quarter
Apr 10
New
Apr 18
First Quarter
Apr 25
Full

Hourly Weather History & Observations

Time (MDT) Temp. Windchill Dew Point Humidity Pressure Visibility Wind Dir Wind Speed Gust Speed Precip Events Conditions
12:53 AM 39.9 °F - 24.1 °F 53% 30.06 in 10.0 mi Calm Calm - N/A   Clear
1:53 AM 39.9 °F 35.1 °F 26.1 °F 58% 30.05 in 10.0 mi SW 6.9 mph - N/A   Clear
2:53 AM 37.9 °F - 27.0 °F 65% 30.05 in 10.0 mi Calm Calm - N/A   Clear
3:53 AM 37.0 °F 31.0 °F 26.1 °F 65% 30.06 in 10.0 mi WSW 8.1 mph - N/A   Clear
4:53 AM 35.1 °F 30.1 °F 26.1 °F 70% 30.08 in 10.0 mi WNW 5.8 mph - N/A   Clear
5:53 AM 34.0 °F 28.0 °F 27.0 °F 75% 30.08 in 10.0 mi WSW 6.9 mph - N/A   Clear
6:53 AM 34.0 °F - 26.1 °F 73% 30.10 in 10.0 mi Calm Calm - N/A   Clear
7:53 AM 35.1 °F 29.3 °F 28.0 °F 76% 30.14 in 10.0 mi WNW 6.9 mph - N/A   Partly Cloudy
8:08 AM 37.4 °F 32.8 °F 30.2 °F 75% 30.16 in 10.0 mi West 5.8 mph - N/A   Mostly Cloudy
8:53 AM 39.0 °F 35.7 °F 34.0 °F 82% 30.13 in 10.0 mi NW 4.6 mph - N/A   Overcast
9:42 AM 39.2 °F 37.0 °F 33.8 °F 81% 30.18 in 10.0 mi NNW 3.5 mph - N/A   Overcast
9:50 AM 39.2 °F 37.0 °F 33.8 °F 81% 30.18 in 10.0 mi North 3.5 mph - N/A   Overcast
9:53 AM 39.9 °F 36.7 °F 33.1 °F 77% 30.15 in 10.0 mi North 4.6 mph - N/A   Overcast
10:19 AM 39.2 °F 33.6 °F 33.8 °F 81% 30.19 in 10.0 mi North 8.1 mph - N/A   Overcast
10:41 AM 39.2 °F - 33.8 °F 81% 30.19 in 10.0 mi Calm Calm - N/A   Overcast
10:53 AM 41.0 °F 38.0 °F 34.0 °F 76% 30.17 in 10.0 mi NNW 4.6 mph - N/A   Overcast
11:03 AM 41.0 °F 39.0 °F 33.8 °F 76% 30.19 in 10.0 mi NW 3.5 mph - N/A   Overcast
11:25 AM 42.8 °F 41.1 °F 33.8 °F 70% 30.19 in 10.0 mi North 3.5 mph - N/A   Overcast
11:53 AM 45.0 °F 43.5 °F 35.1 °F 68% 30.14 in 10.0 mi Variable 3.5 mph - N/A   Mostly Cloudy
12:45 PM 48.2 °F - 33.8 °F 58% 30.17 in 10.0 mi Variable 3.5 mph - N/A   Partly Cloudy
12:53 PM 46.9 °F - 33.1 °F 59% 30.14 in 10.0 mi NNE 6.9 mph - N/A   Partly Cloudy
1:53 PM 50.0 °F - 33.1 °F 52% 30.14 in 10.0 mi East 6.9 mph - N/A   Overcast
2:53 PM 52.0 °F - 30.9 °F 45% 30.12 in 10.0 mi East 5.8 mph - N/A   Scattered Clouds
3:53 PM 55.0 °F - 28.9 °F 37% 30.10 in 10.0 mi NE 11.5 mph - N/A   Partly Cloudy
4:53 PM 55.0 °F - 27.0 °F 34% 30.11 in 10.0 mi North 4.6 mph - N/A   Scattered Clouds
5:53 PM 54.0 °F - 27.0 °F 35% 30.11 in 10.0 mi ENE 6.9 mph - N/A   Clear
6:53 PM 51.1 °F - 27.0 °F 39% 30.12 in 10.0 mi NE 5.8 mph - N/A   Clear
7:53 PM 46.0 °F 41.9 °F 25.0 °F 44% 30.15 in 10.0 mi NE 8.1 mph - N/A   Clear
8:53 PM 43.0 °F 41.3 °F 25.0 °F 49% 30.17 in 10.0 mi SW 3.5 mph - N/A   Clear
9:53 PM 39.9 °F 35.8 °F 26.1 °F 58% 30.18 in 10.0 mi SW 5.8 mph - N/A   Clear
10:53 PM 39.9 °F 36.7 °F 25.0 °F 55% 30.16 in 10.0 mi SW 4.6 mph - N/A   Clear
11:53 PM 36.0 °F - 24.1 °F 62% 30.14 in 10.0 mi Calm Calm - N/A   Clear